[ hide orbit diagram ]
For accurate long-term ephemerides, please instead use our Horizons system.This orbit viewer was implemented using two-body methods, and hence should not be used for determining accurate long-term trajectories (over several years or decades) or planetary encounter circumstances.
Orbital Elements at Epoch 2459000.5 (2020-May-31.0) TDB
Reference: JPL 13 (heliocentric ecliptic J2000)
Element | Value | Uncertainty (1-sigma) | Units |
e | .1825204403057174 | 5.1258e-08 | |
a | 2.646782659164389 | 1.3276e-08 | au |
q | 2.163690722820168 | 1.4081e-07 | au |
i | 4.763990681451342 | 3.595e-06 | deg |
node | 78.26745239559827 | 6.4533e-05 | deg |
peri | 326.9044353448603 | 6.5809e-05 | deg |
M | 294.6182312391648 | 1.3194e-05 | deg |
tp | 2459286.147226969858 (2021-Mar-12.64722697) | 5.834e-05 | TDB |
period | 1572.808500872916 4.31 | 1.1834e-05 3.24e-08 | d yr |
n | .2288899124084071 | 1.7221e-09 | deg/d |
Q | 3.129874595508611 | 1.5699e-08 | au |
|
| | Orbit Determination Parameters
Additional Information
|
[ show covariance matrix ]
Physical Parameter Table
Parameter |
Symbol |
Value |
Units |
Sigma |
Reference |
Notes |
absolute magnitude |
H |
16.4 |
|
n/a |
MPO446054 |
|
rotation period |
rot_per |
5.6 |
h |
n/a |
LCDB (Rev. 2020-October); Warner et al., 2009 |
Result based on fragmentary lightcurve(s), may be completely wrong. Published Reference List: [Pravec, P.; Wolf, M.; Sarounova, L. (2012) http://www.asu.cas.cz/~ppravec/neo.htm] |
|
167208 Lelekovice | Discovered 2003 Oct. 17 by P. Kušnirák and K. Hornoch at Ondřejov. |
The picturesque village of Lelekovice, near Brno, is the birthplace of the second discoverer, who has also made observations of comets and supernovae for more than two decades from his private observatory there. The naming of this minor planet commemorates the 720th anniversary of the founding of the village. |
NOTE: some special characters may not display properly (any characters within {} are an attempt to place the proper accent above a character) |
Reference: 20080520/MPCPages.arc | Last Updated: 2008-05-22 |
|
[ show close-approach data ]
|